This is the latest recevied weather packets stored in our database for station/object APPOWX. If no packets are shown the sender has not sent any weather packets the latest 10 day(s).
| Time | Temp. | Humidity | Pressure | Rain* | Wind** | Luminosity | Snow |
|---|---|---|---|---|---|---|---|
| 1778361260 | 22.22° C | 54% | 1011.3 hPa | 0 mm | - | - | - |
| 1778361200 | 22.22° C | 56% | 1011.3 hPa | 0 mm | - | - | - |
| 1778361140 | 22.22° C | 55% | 1011.2 hPa | 0 mm | - | - | - |
| 1778361081 | 22.22° C | 53% | 1011.3 hPa | 0 mm | - | - | - |
| 1778361021 | 22.22° C | 53% | 1011.2 hPa | 0 mm | - | - | - |
| 1778360961 | 22.22° C | 53% | 1011.1 hPa | 0 mm | - | - | - |
| 1778360900 | 22.22° C | 54% | 1011.3 hPa | 0 mm | - | - | - |
| 1778360840 | 22.22° C | 53% | 1011.1 hPa | 0 mm | - | - | - |
| 1778360781 | 22.22° C | 53% | 1011.1 hPa | 0 mm | - | - | - |
| 1778360720 | 22.22° C | 53% | 1011.1 hPa | 0 mm | - | - | - |
| 1778360660 | 22.22° C | 53% | 1011 hPa | 0 mm | - | - | - |
| 1778360600 | 22.22° C | 51% | 1011.1 hPa | 0 mm | - | - | - |
| 1778360540 | 22.22° C | 52% | 1011.2 hPa | 0 mm | - | - | - |
| 1778360480 | 22.22° C | 52% | 1011.1 hPa | 0 mm | - | - | - |
| 1778360420 | 22.22° C | 53% | 1011.2 hPa | 0 mm | - | - | - |
| 1778360359 | 22.22° C | 51% | 1011.2 hPa | 0 mm | - | - | - |
| 1778360300 | 22.78° C | 52% | 1011.2 hPa | 0 mm | - | - | - |
| 1778360240 | 22.78° C | 51% | 1011 hPa | 0 mm | - | - | - |
| 1778360179 | 22.78° C | 53% | 1011.3 hPa | 0 mm | - | - | - |
| 1778360119 | 22.78° C | 50% | 1011.3 hPa | 0 mm | - | - | - |
| 1778360060 | 22.78° C | 53% | 1011.2 hPa | 0 mm | - | - | - |
| 1778359999 | 22.78° C | 52% | 1011.1 hPa | 0 mm | - | - | - |
| 1778359939 | 23.33° C | 50% | 1011.3 hPa | 0 mm | - | - | - |
| 1778359879 | 22.78° C | 54% | 1011.2 hPa | 0 mm | - | - | - |
| 1778359818 | 23.33° C | 52% | 1011.3 hPa | 0 mm | - | - | - |
* Rain latest hour (hover to see other rain measurements)
** Current wind speed in m/s (hover to see current wind gust speed)